sat.trackr.live / text

‹ back to catalog

STARLINK-32737

NORAD 62444 · 2024-251N

PAYLOAD ACTIVE UNKNOWN

§ Identity

Operator
Country
US
Launch date
2024-12-29
Launch site
AFWTR
Launch vehicle
Mass (kg)
RCS (m²)

Purposes: comms

External: N2YO · Heavens-Above · Gunter

§ Orbital elements

Epoch: 2026-09-21T20:46:25.915872Z

Period
93.85 min
Inclination
53.1579°
Eccentricity
0.0001475
Mean motion
15.34397619 rev/d
Perigee alt
461.7 km
Apogee alt
463.7 km
Semi-major
6,840.8 km
B*
4.3304e-4
RAAN
139.1297°
Arg perigee
89.0496°
Mean anomaly
271.0675°
Rev number
9,805

§ Raw data

STARLINK-327371 62444U 24251N   26264.86557773  .00014281  00000+0  43304-3 0  99942 62444  53.1579 139.1297 0001475  89.0496 271.0675 15.34397619 98055

JSON: /api/v1/satellites/62444 · /tle

For live sub-satellite position, see the globe view (requires WebGL).

§ Visibility from observer

Set your observer location to see the next 7 days of passes ≥ 10°. The values pass through the URL so the page stays shareable.

No JS? Fill the form by hand. The geolocation button needs JavaScript.